KJ6WEG Weather Reports


Display with metric or nautical units.
time (UTC)temp
F
wind
direction
speed
MPH
gust
MPH
rain 1hr
in
rain 24hr
in
rain mn
in
humidity
%
barometer
mb
20260904215554 67 313 4.0 15.0 0.00 0.07 0.00 77 1015.0
20260904215053 67 248 5.0 15.0 0.00 0.07 0.00 78 1015.0
20260904214609 67 232 5.0 14.0 0.00 0.07 0.00 77 1015.0
20260904214056 67 293 3.0 14.0 0.00 0.07 0.00 78 1015.1
20260904213554 67 0 4.0 12.0 0.00 0.07 0.00 79 1015.0
20260904213104 66 263 5.0 12.0 0.00 0.07 0.00 79 1015.1
20260904212555 66 284 5.0 12.0 0.00 0.07 0.00 79 1015.0
20260904212054 66 227 4.0 16.0 0.00 0.07 0.00 80 1015.1
20260904211604 66 244 5.0 16.0 0.00 0.07 0.00 79 1015.0
20260904211054 67 277 6.0 12.0 0.00 0.07 0.00 78 1015.1
20260904210554 67 178 2.0 11.0 0.00 0.07 0.00 80 1015.0
20260904210106 67 279 3.0 11.0 0.00 0.07 0.00 80 1015.1
20260904205554 67 227 4.0 11.0 0.00 0.07 0.00 80 1015.0
20260904205054 66 262 4.0 11.0 0.00 0.07 0.00 80 1015.0
20260904204604 67 286 4.0 11.0 0.00 0.07 0.00 80 1014.9
20260904204055 67 211 3.0 9.0 0.00 0.07 0.00 79 1015.0
20260904203554 67 240 3.0 9.0 0.00 0.07 0.00 79 1015.0
20260904203104 67 277 2.0 10.0 0.00 0.07 0.00 79 1015.0
20260904202554 67 225 3.0 12.0 0.00 0.07 0.00 79 1015.0
20260904202051 67 198 1.0 14.0 0.00 0.07 0.00 80 1014.9
20260904201631 67 238 4.0 14.0 0.00 0.07 0.00 80 1014.9
20260904201054 67 273 2.0 12.0 0.00 0.07 0.00 79 1014.9
20260904200553 67 275 3.0 12.0 0.00 0.07 0.00 78 1014.9
20260904200122 67 209 3.0 9.0 0.00 0.07 0.00 79 1014.9
20260904195555 67 205 2.0 9.0 0.00 0.07 0.00 77 1014.8
20260904195054 67 231 2.0 8.0 0.00 0.07 0.00 78 1014.8
20260904194610 67 348 3.0 8.0 0.00 0.07 0.00 77 1014.9
20260904194055 67 215 1.0 8.0 0.00 0.07 0.00 78 1014.9
20260904193555 67 266 1.0 8.0 0.00 0.07 0.00 76 1015.0
20260904193111 67 0 2.0 8.0 0.00 0.07 0.00 76 1015.0
20260904192554 67 250 2.0 8.0 0.00 0.07 0.00 77 1015.1
20260904192054 66 257 1.0 7.0 0.00 0.07 0.00 78 1015.1
20260904191606 66 238 2.0 7.0 0.00 0.07 0.00 78 1015.1
20260904191054 66 256 1.0 6.0 0.00 0.07 0.00 79 1015.1
20260904190556 66 309 1.0 8.0 0.00 0.07 0.00 80 1015.1
20260904185557 65 254 3.0 8.0 0.00 0.07 0.00 81 1015.2
20260904185056 65 302 3.0 8.0 0.00 0.07 0.00 80 1015.3
20260904184608 65 265 2.0 6.0 0.00 0.07 0.00 81 1015.2
20260904184054 65 248 1.0 8.0 0.00 0.07 0.00 82 1015.2
20260904183559 65 257 2.0 8.0 0.00 0.07 0.00 82 1015.3
20260904183102 65 248 2.0 9.0 0.00 0.07 0.00 83 1015.3
20260904182552 65 259 2.0 9.0 0.00 0.07 0.00 83 1015.3
20260904182054 65 247 1.0 8.0 0.00 0.07 0.00 83 1015.3
20260904181606 64 360 1.0 8.0 0.00 0.07 0.00 84 1015.2
20260904181055 64 279 2.0 8.0 0.00 0.07 0.00 83 1015.2
20260904180555 64 269 1.0 5.0 0.00 0.07 0.00 83 1015.2
20260904180105 64 268 1.0 5.0 0.00 0.07 0.00 83 1015.1
20260904175555 64 221 1.0 5.0 0.00 0.07 0.00 84 1015.2
20260904175051 63 252 1.0 5.0 0.00 0.07 0.00 85 1015.3
20260904174603 63 0 1.0 4.0 0.00 0.07 0.00 85 1015.3
20260904174055 63 185 1.0 5.0 0.00 0.07 0.00 87 1015.2
20260904173555 63 210 1.0 5.0 0.00 0.07 0.00 87 1015.3
20260904173128 63 286 1.0 5.0 0.00 0.07 0.00 88 1015.2
20260904172556 62 267 1.0 5.0 0.00 0.07 0.00 89 1015.2
20260904172055 62 217 2.0 5.0 0.00 0.07 0.00 89 1015.2
20260904171611 62 266 1.0 4.0 0.00 0.07 0.00 91 1015.1
20260904171054 61 252 1.0 5.0 0.00 0.07 0.00 92 1015.1
20260904170556 61 230 1.0 5.0 0.00 0.07 0.00 93 1015.0
20260904170110 61 224 1.0 4.0 0.00 0.07 0.00 94 1014.9
20260904165556 61 246 1.0 6.0 0.00 0.07 0.00 94 1015.0
20260904165052 61 236 2.0 6.0 0.00 0.07 0.00 95 1014.9
20260904164627 61 231 1.0 6.0 0.00 0.07 0.00 95 1015.0
20260904164055 60 207 1.0 4.0 0.00 0.07 0.00 96 1014.7
20260904163555 60 196 0.0 3.0 0.00 0.07 0.00 96 1014.7
20260904163108 60 207 0.0 3.0 0.00 0.07 0.00 97 1014.6
20260904162555 59 0 0.0 5.0 0.00 0.07 0.00 96 1014.5
20260904162053 60 243 1.0 5.0 0.00 0.07 0.00 97 1014.5
20260904161605 60 229 0.0 5.0 0.00 0.07 0.00 97 1014.4
20260904161051 59 0 1.0 4.0 0.00 0.07 0.00 97 1014.4
20260904160556 59 0 0.0 3.0 0.00 0.07 0.00 97 1014.5
20260904160109 59 267 1.0 3.0 0.00 0.07 0.00 97 1014.4
20260904155556 59 0 2.0 3.0 0.00 0.07 0.00 97 1014.4
20260904155055 59 0 0.0 2.0 0.00 0.07 0.00 97 1014.4
20260904154603 59 0 0.0 2.0 0.00 0.07 0.00 97 1014.4
20260904154058 59 211 0.0 2.0 0.00 0.07 0.00 98 1014.4
20260904153555 59 219 0.0 2.0 0.00 0.07 0.00 97 1014.5
20260904153108 58 219 0.0 2.0 0.00 0.07 0.00 97 1014.4
20260904152554 58 0 0.0 0.0 0.00 0.07 0.00 97 1014.4
20260904152052 58 0 0.0 0.0 0.00 0.07 0.00 97 1014.3
20260904151615 58 0 0.0 0.0 0.00 0.07 0.00 97 1014.3
20260904151054 58 0 0.0 1.0 0.00 0.07 0.00 97 1014.3
20260904150555 58 0 0.0 1.0 0.00 0.07 0.00 97 1014.2
20260904150125 58 0 0.0 1.0 0.00 0.07 0.00 98 1014.1
20260904145555 58 0 0.0 3.0 0.00 0.07 0.00 98 1014.1
20260904145056 58 0 0.0 3.0 0.00 0.07 0.00 98 1014.1
20260904144604 57 236 0.0 3.0 0.00 0.07 0.00 98 1014.0
20260904144056 57 0 0.0 0.0 0.00 0.07 0.00 97 1014.0
20260904143555 57 0 0.0 0.0 0.00 0.07 0.00 97 1013.9
20260904143117 57 0 0.0 0.0 0.00 0.07 0.00 98 1013.8
20260904142555 57 0 0.0 0.0 0.00 0.07 0.00 97 1013.8
20260904142055 56 0 0.0 0.0 0.00 0.07 0.00 97 1013.9
20260904141616 56 0 0.0 0.0 0.00 0.07 0.00 98 1013.7
20260904141055 56 0 0.0 0.0 0.00 0.07 0.00 97 1013.7
20260904140554 56 0 0.0 0.0 0.00 0.07 0.00 97 1013.7
20260904140107 56 0 0.0 0.0 0.00 0.07 0.00 97 1013.6
20260904135556 56 0 0.0 0.0 0.00 0.07 0.00 97 1013.5
20260904135056 55 0 0.0 0.0 0.00 0.07 0.00 97 1013.5
20260904134624 55 0 0.0 0.0 0.00 0.07 0.00 97 1013.4
20260904134055 55 0 0.0 0.0 0.00 0.07 0.00 97 1013.4
20260904133555 55 0 0.0 0.0 0.00 0.07 0.00 97 1013.3
20260904133113 55 0 0.0 0.0 0.00 0.07 0.00 97 1013.4
20260904132556 55 0 0.0 0.0 0.00 0.07 0.00 97 1013.4
20260904132056 55 0 0.0 0.0 0.00 0.07 0.00 96 1013.3
20260904131602 55 0 0.0 0.0 0.00 0.07 0.00 97 1013.4
20260904131057 55 0 0.0 0.0 0.00 0.07 0.00 97 1013.2
20260904130554 55 0 0.0 0.0 0.00 0.07 0.00 97 1013.3
20260904130107 55 0 0.0 0.0 0.00 0.07 0.00 97 1013.3
20260904125635 55 0 0.0 0.0 0.00 0.07 0.00 97 1013.3
20260904125052 56 0 0.0 0.0 0.00 0.07 0.00 97 1013.2
20260904124608 56 0 0.0 0.0 0.00 0.07 0.00 97 1013.2
20260904124055 55 0 0.0 0.0 0.00 0.07 0.00 97 1013.2
20260904123554 55 0 0.0 0.0 0.00 0.07 0.00 97 1013.2
20260904123108 55 0 0.0 0.0 0.00 0.07 0.00 96 1013.1
20260904122552 56 0 0.0 0.0 0.00 0.07 0.00 96 1013.2
20260904122055 56 0 0.0 0.0 0.00 0.07 0.00 96 1013.2
20260904121607 56 0 0.0 0.0 0.00 0.07 0.00 97 1013.1
20260904121055 56 0 0.0 0.0 0.00 0.07 0.00 96 1013.1
20260904120555 56 0 0.0 0.0 0.00 0.07 0.00 96 1013.1
20260904120109 56 0 0.0 0.0 0.00 0.07 0.00 96 1013.1
20260904115555 56 0 0.0 0.0 0.00 0.07 0.00 96 1013.0
20260904115055 56 0 0.0 0.0 0.00 0.07 0.00 96 1013.0
20260904114605 56 0 0.0 0.0 0.00 0.07 0.00 96 1013.0
20260904114055 56 0 0.0 0.0 0.00 0.07 0.00 96 1013.0
20260904113557 57 0 0.0 0.0 0.00 0.07 0.00 96 1013.0
20260904113106 57 0 0.0 0.0 0.00 0.07 0.00 96 1013.1
20260904112554 57 0 0.0 0.0 0.00 0.07 0.00 96 1013.1
20260904112054 57 0 0.0 0.0 0.00 0.07 0.00 96 1013.2
20260904111607 57 0 0.0 0.0 0.00 0.07 0.00 96 1013.1
20260904111055 57 0 0.0 0.0 0.00 0.07 0.00 96 1013.0
20260904110555 57 0 0.0 0.0 0.00 0.07 0.00 96 1013.0
20260904110108 58 0 0.0 0.0 0.00 0.07 0.00 96 1013.0
20260904105558 58 0 0.0 0.0 0.00 0.07 0.00 96 1013.0
20260904105054 58 0 0.0 0.0 0.00 0.07 0.00 96 1013.0
20260904104605 58 0 0.0 0.0 0.00 0.07 0.00 96 1013.0
20260904104056 58 0 0.0 2.0 0.00 0.07 0.00 96 1013.0
20260904103554 58 0 0.0 2.0 0.00 0.07 0.00 96 1013.0
20260904103113 58 0 0.0 2.0 0.00 0.07 0.00 97 1013.0
20260904102552 58 0 0.0 2.0 0.00 0.07 0.00 96 1013.0
20260904102055 58 0 0.0 2.0 0.00 0.07 0.00 97 1012.9
20260904101605 58 0 0.0 2.0 0.00 0.07 0.00 96 1012.8
20260904101055 58 0 0.0 0.0 0.00 0.07 0.00 96 1012.8
20260904100555 58 0 0.0 0.0 0.00 0.07 0.00 96 1012.9
20260904100106 59 0 0.0 0.0 0.00 0.07 0.00 96 1012.9
20260904095555 59 0 0.0 1.0 0.00 0.07 0.00 96 1012.8
20260904095054 59 0 0.0 1.0 0.00 0.07 0.00 96 1012.9
20260904094606 59 0 0.0 0.0 0.00 0.07 0.00 96 1012.8
20260904094054 59 0 0.0 0.0 0.00 0.07 0.00 96 1012.9
20260904093555 59 0 0.0 0.0 0.00 0.07 0.00 96 1012.8
20260904093114 59 0 0.0 0.0 0.00 0.07 0.00 96 1012.8
20260904092554 59 0 0.0 2.0 0.00 0.07 0.00 96 1012.8
20260904092051 59 0 0.0 2.0 0.00 0.07 0.00 96 1012.8
20260904091605 59 266 0.0 1.0 0.00 0.07 0.00 96 1012.8
20260904091055 59 266 0.0 4.0 0.00 0.07 0.00 96 1012.8
20260904090555 59 0 0.0 4.0 0.00 0.07 0.00 96 1012.8
20260904090103 59 0 0.0 2.0 0.00 0.07 0.00 96 1012.8
20260904085555 59 0 0.0 2.0 0.00 0.07 0.00 96 1012.7
20260904085055 59 0 0.0 2.0 0.00 0.07 0.00 96 1012.7
20260904084603 60 0 0.0 2.0 0.00 0.07 0.00 96 1012.7
20260904084051 60 0 0.0 2.0 0.00 0.07 0.00 96 1012.8
20260904083553 60 0 0.0 0.0 0.00 0.07 0.00 96 1012.8
20260904083105 60 0 0.0 3.0 0.00 0.07 0.00 96 1012.6
20260904082555 60 0 0.0 4.0 0.00 0.07 0.00 96 1012.8
20260904082058 60 238 0.0 4.0 0.00 0.07 0.00 96 1012.6
20260904081610 60 252 0.0 3.0 0.00 0.07 0.00 96 1012.6
20260904081055 60 0 0.0 3.0 0.00 0.07 0.00 96 1012.7
20260904080555 60 231 0.0 3.0 0.00 0.07 0.00 96 1012.7
20260904080108 60 0 1.0 3.0 0.00 0.07 0.00 96 1012.6
20260904075555 60 0 0.0 4.0 0.00 0.07 0.00 96 1012.7
20260904075054 60 0 0.0 4.0 0.00 0.07 0.00 96 1012.6
20260904074603 61 229 0.0 4.0 0.00 0.07 0.00 96 1012.8
20260904074052 61 212 1.0 4.0 0.00 0.07 0.00 96 1012.8
20260904073555 61 0 0.0 4.0 0.01 0.07 0.00 96 1012.7
20260904073106 61 0 1.0 5.0 0.01 0.07 0.00 96 1012.7
20260904072556 61 225 1.0 5.0 0.01 0.07 0.00 96 1012.6
20260904072055 61 208 1.0 5.0 0.01 0.07 0.00 96 1012.5
20260904071604 61 254 1.0 5.0 0.01 0.07 0.00 96 1012.5
20260904071055 61 232 2.0 5.0 0.01 0.07 0.00 96 1012.6
20260904070555 61 232 1.0 4.0 0.01 0.07 0.00 96 1012.5
20260904070114 61 210 0.0 4.0 0.01 0.07 0.00 96 1012.5
20260904065554 61 240 0.0 2.0 0.01 0.07 0.07 96 1012.5
20260904065054 61 223 0.0 3.0 0.01 0.07 0.07 96 1012.5
20260904064605 61 0 0.0 3.0 0.01 0.07 0.07 96 1012.5
20260904064052 61 0 0.0 0.0 0.01 0.07 0.07 96 1012.5
20260904063555 61 0 0.0 0.0 0.00 0.06 0.06 96 1012.5
20260904063121 61 0 0.0 0.0 0.00 0.06 0.06 96 1012.5
20260904062558 61 0 0.0 0.0 0.00 0.06 0.06 96 1012.5
20260904062055 61 0 0.0 0.0 0.00 0.06 0.06 96 1012.5
20260904061603 61 0 0.0 0.0 0.00 0.06 0.06 96 1012.4
20260904061058 61 0 0.0 0.0 0.00 0.06 0.06 96 1012.6
20260904060555 61 0 0.0 0.0 0.00 0.06 0.06 96 1012.7
20260904060107 61 0 0.0 1.0 0.00 0.06 0.06 96 1012.6
20260904055554 61 0 0.0 1.0 0.00 0.06 0.06 96 1012.6
20260904055055 60 0 0.0 0.0 0.00 0.06 0.06 96 1012.7
20260904054612 60 0 0.0 0.0 0.00 0.06 0.06 96 1012.7
20260904054054 60 0 0.0 0.0 0.00 0.06 0.06 96 1012.7
20260904053554 60 0 0.0 0.0 0.00 0.06 0.06 96 1012.8
20260904053103 60 0 0.0 0.0 0.01 0.06 0.06 96 1012.9
20260904052556 60 0 0.0 0.0 0.01 0.06 0.06 96 1012.8
20260904052056 60 0 0.0 1.0 0.02 0.06 0.06 95 1012.8
20260904051608 60 0 0.0 1.0 0.02 0.06 0.06 95 1013.0
20260904051055 61 0 0.0 2.0 0.03 0.06 0.06 95 1013.0
20260904050555 61 0 0.0 4.0 0.03 0.06 0.06 95 1013.0
20260904050106 61 0 1.0 4.0 0.03 0.06 0.06 95 1013.1
20260904045556 61 9 1.0 4.0 0.03 0.06 0.06 95 1013.0
20260904045054 61 333 2.0 8.0 0.03 0.06 0.06 95 1013.0
20260904044600 61 12 2.0 8.0 0.04 0.06 0.06 95 1013.1
20260904044055 61 5 2.0 9.0 0.04 0.06 0.06 95 1013.0
20260904043555 61 321 3.0 9.0 0.04 0.06 0.06 95 1013.1
20260904043104 61 315 3.0 9.0 0.04 0.05 0.05 95 1013.1
20260904042555 62 335 5.0 9.0 0.04 0.05 0.05 94 1013.0
20260904042055 62 323 2.0 5.0 0.04 0.04 0.04 95 1013.0
20260904041607 62 294 1.0 3.0 0.04 0.04 0.04 95 1012.9
20260904041055 62 338 1.0 3.0 0.03 0.03 0.03 94 1012.8
20260904040558 62 321 0.0 3.0 0.03 0.03 0.03 94 1012.6
20260904040107 62 335 1.0 3.0 0.03 0.03 0.03 94 1012.7
20260904035556 62 0 0.0 3.0 0.03 0.03 0.03 94 1012.7
20260904035058 62 0 0.0 3.0 0.03 0.03 0.03 94 1012.5
20260904034603 62 351 0.0 4.0 0.02 0.02 0.02 93 1012.6
20260904034054 62 0 1.0 4.0 0.02 0.02 0.02 93 1012.6
20260904033556 62 0 1.0 4.0 0.02 0.02 0.02 93 1012.5
20260904033102 62 355 2.0 5.0 0.01 0.01 0.01 93 1012.4
20260904032555 63 304 1.0 5.0 0.01 0.01 0.01 93 1012.5
20260904032055 63 315 1.0 5.0 0.00 0.00 0.00 93 1012.4
20260904031608 63 0 0.0 4.0 0.00 0.00 0.00 92 1012.4
20260904031055 63 247 1.0 5.0 0.00 0.00 0.00 92 1012.3
20260904030555 63 238 1.0 6.0 0.00 0.00 0.00 92 1012.2
20260904030103 63 234 1.0 6.0 0.00 0.00 0.00 92 1012.2
20260904025558 63 0 0.0 4.0 0.00 0.00 0.00 91 1012.2
20260904025056 64 0 0.0 4.0 0.00 0.00 0.00 91 1012.2
20260904024611 64 237 1.0 4.0 0.00 0.00 0.00 91 1012.3
20260904024058 64 223 1.0 4.0 0.00 0.00 0.00 91 1012.3
20260904023555 64 223 0.0 5.0 0.00 0.00 0.00 91 1012.4
20260904023105 64 0 1.0 5.0 0.00 0.00 0.00 91 1012.4
20260904022555 64 0 1.0 7.0 0.00 0.00 0.00 91 1012.4
20260904022055 64 229 1.0 7.0 0.00 0.00 0.00 91 1012.5
20260904021609 64 234 1.0 8.0 0.00 0.00 0.00 91 1012.5
20260904021054 64 230 2.0 8.0 0.00 0.00 0.00 91 1012.5
20260904020555 65 286 2.0 8.0 0.00 0.00 0.00 91 1012.5
20260904020111 65 251 2.0 8.0 0.00 0.00 0.00 90 1012.5
20260904015554 65 181 2.0 8.0 0.00 0.00 0.00 90 1012.5
20260904015055 65 229 2.0 8.0 0.00 0.00 0.00 90 1012.6
20260904014631 66 257 1.0 8.0 0.00 0.00 0.00 90 1012.6
20260904014055 66 241 2.0 7.0 0.00 0.00 0.00 90 1012.6
20260904013555 66 240 1.0 5.0 0.00 0.00 0.00 89 1012.7
20260904013104 66 0 1.0 8.0 0.00 0.00 0.00 89 1012.7
20260904012555 66 222 1.0 9.0 0.00 0.00 0.00 89 1012.7
20260904012056 66 265 2.0 9.0 0.00 0.00 0.00 89 1012.6
20260904011605 66 211 1.0 8.0 0.00 0.00 0.00 88 1012.7
20260904011055 66 248 2.0 8.0 0.00 0.00 0.00 88 1012.7
20260904010555 67 244 1.0 9.0 0.00 0.00 0.00 88 1012.7
20260904010104 67 246 1.0 9.0 0.00 0.00 0.00 88 1012.8
20260904005555 67 244 3.0 8.0 0.00 0.00 0.00 87 1012.8
20260904005055 67 246 3.0 8.0 0.00 0.00 0.00 87 1012.8
20260904004608 67 215 2.0 8.0 0.00 0.00 0.00 87 1012.8
20260904004055 67 237 3.0 10.0 0.00 0.00 0.00 86 1012.8
20260904003558 67 247 2.0 10.0 0.00 0.00 0.00 86 1012.8
20260904003105 67 253 2.0 7.0 0.00 0.00 0.00 86 1012.8
20260904002555 67 279 1.0 10.0 0.00 0.00 0.00 85 1012.9
20260904002056 67 342 3.0 10.0 0.00 0.00 0.00 84 1012.8
20260904001601 67 219 3.0 7.0 0.00 0.00 0.00 84 1012.7
20260904001055 67 210 2.0 8.0 0.00 0.00 0.00 84 1012.8
20260904000555 67 229 3.0 8.0 0.00 0.00 0.00 84 1012.8
20260904000123 67 258 2.0 8.0 0.00 0.00 0.00 84 1012.9
20260903235557 67 205 1.0 8.0 0.00 0.00 0.00 85 1012.9
20260903235052 67 229 1.0 8.0 0.00 0.00 0.00 85 1013.0
20260903234604 67 260 0.0 6.0 0.00 0.00 0.00 85 1013.0
20260903234052 67 0 1.0 9.0 0.00 0.00 0.00 85 1013.1
20260903233556 67 283 3.0 9.0 0.00 0.00 0.00 84 1013.1
20260903233108 67 286 1.0 8.0 0.00 0.00 0.00 84 1013.2
20260903232555 68 302 1.0 7.0 0.00 0.00 0.00 84 1013.2
20260903232055 68 304 1.0 7.0 0.00 0.00 0.00 83 1013.2
20260903231603 68 320 1.0 7.0 0.00 0.00 0.00 83 1013.3
20260903231059 68 274 1.0 7.0 0.00 0.00 0.00 82 1013.3
20260903230552 68 242 1.0 8.0 0.00 0.00 0.00 82 1013.4
20260903230114 68 214 2.0 8.0 0.00 0.00 0.00 82 1013.4
20260903225555 68 210 3.0 9.0 0.00 0.00 0.00 82 1013.4
20260903225052 68 210 3.0 9.0 0.00 0.00 0.00 81 1013.5
20260903224629 68 182 4.0 9.0 0.00 0.00 0.00 81 1013.5
20260903224055 68 211 3.0 9.0 0.00 0.00 0.00 81 1013.5
20260903223555 68 238 2.0 9.0 0.00 0.00 0.00 81 1013.7
20260903223113 68 216 3.0 10.0 0.00 0.00 0.00 81 1013.7
20260903222556 69 222 3.0 11.0 0.00 0.00 0.00 81 1013.7
20260903222055 69 202 2.0 11.0 0.00 0.00 0.00 81 1013.7
20260903221604 69 279 5.0 11.0 0.00 0.00 0.00 80 1013.8
20260903221051 69 281 4.0 12.0 0.00 0.00 0.00 80 1013.8
20260903220555 69 219 4.0 12.0 0.00 0.00 0.00 80 1013.8
20260903220108 69 202 4.0 12.0 0.00 0.00 0.00 78 1013.9